Location: Deer Pines Estates
(40.9114°N, 81.4920°W)
Time: 05:53:04
(UTC+00:00)

Daily predictions for brighter satellites

Satellite Brightness Start Highest point End
(mag) Time Altitude Azimuth Time Altitude Azimuth Time Altitude Azimuth
ATLAS 2AS CENTAUR R/B 4.4 01:26:32 10° NNW 01:32:00 22° NNE 01:37:11 10° E
Lacrosse 5 4.2 01:31:35 10° NNW 01:34:56 17° NNE 01:38:18 10° ENE
USA 276 3.6 01:33:55 10° S 01:35:52 16° SE 01:37:50 10° E
Cosmos 407 Rocket 4.5 01:31:30 10° N 01:36:07 31° ENE 01:40:39 10° SE
Okean 1 Rocket 3.3 01:31:43 10° N 01:36:09 57° E 01:40:31 10° SSE
NOSS 3-4 (A) 4.1 01:31:39 10° NNW 01:38:40 64° NE 01:46:35 10° SE
NOSS 3-4 (C) 4.1 01:31:45 10° NNW 01:38:45 63° NE 01:46:37 10° SE
Cosmos 1025 Rocket 4.4 01:36:29 10° SE 01:39:36 20° E 01:42:44 10° NE
Cosmos 1626 4.0 01:36:44 10° SW 01:40:03 33° WNW 01:43:23 10° NNW
SJ-6B 4.3 01:40:04 10° SSW 01:43:32 35° W 01:47:06 10° NNW
CZ-4 R/B 4.4 01:42:37 10° WSW 01:44:37 13° W 01:46:38 10° WNW
Cosmos 2056 Rocket 4.5 01:41:13 10° SSE 01:45:44 29° E 01:50:20 10° NE
Cosmos 1437 Rocket 4.0 01:43:38 10° NNW 01:47:23 43° W 01:51:12 10° SSW
Cosmos 2369 Rocket 2.7 01:43:30 10° NNW 01:49:01 60° WSW 01:54:33 10° S
IRS-1A Rocket 4.5 01:44:27 10° SSE 01:50:18 69° ENE 01:56:12 10° N
Lacrosse 4 Rocket 3.2 01:46:34 10° SW 01:50:25 36° WNW 01:54:13 10° NNE
Terra 3.9 01:48:22 10° E 01:50:42 14° ENE 01:53:03 10° NNE
CZ-4B R/B 1.2 01:48:16 10° NNE 01:51:05 48° E 01:53:52 10° S
Cosmos 1140 Rocket 3.9 01:48:33 10° N 01:53:36 47° ENE 01:58:15 12° SE
Meteor 1-24 Rocket 4.4 01:52:38 10° SSE 01:57:18 33° E 02:02:02 10° NNE
Lacrosse 5 rocket 3.3 01:56:15 10° NNW 01:59:05 19° NNE 02:02:01 10° ENE
SPOT 1/Viking Rocket 3.6 01:54:24 10° SSE 01:59:31 74° ENE 02:04:40 10° N
Cosmos 1656 Rocket 4.1 01:54:27 10° NNW 01:59:50 60° WSW 02:05:16 10° S
X-37B 0.6 01:59:51 10° SW 02:02:30 43° SSE 02:05:13 10° ENE
Meteor 2-10 Rocket 3.4 02:00:14 10° N 02:05:17 72° E 02:10:12 10° SSE
Cosmos 1975 Rocket 3.3 02:04:32 10° S 02:08:53 53° E 02:13:13 10° NNE
Cosmos 1300 2.8 02:06:44 10° N 02:10:31 79° W 02:14:17 10° S
CARTOSAT-1 3.8 02:08:20 14° SSE 02:11:55 55° ENE 02:16:08 10° N
H-2A R/B 3.0 02:07:45 10° N 02:12:02 54° WNW 02:16:22 10° SSW
Ariane Rocket 3.0 02:08:19 10° SSE 02:13:23 84° ENE 02:18:31 10° NNW
S3M 4.1 02:08:15 10° S 02:14:29 81° W 02:20:40 10° N
Cosmos 1271 Rocket 4.4 02:13:00 10° NNE 02:16:03 21° ENE 02:17:57 15° ESE
Cosmos 1607 4.0 02:10:02 10° SSW 02:16:08 59° ESE 02:22:14 10° NE
MetOp-B 4.1 02:13:25 12° SSE 02:18:21 78° ENE 02:23:43 10° N
Cosmos 1544 Rocket 4.3 02:26:29 10° N 02:30:29 37° ENE 02:32:40 22° SE
Resurs 01 Rocket 2.7 02:26:49 10° S 02:31:00 42° W 02:35:14 10° NNW
Cosmos 2084 3.1 02:27:24 10° SSW 02:31:12 62° ESE 02:35:00 10° NE
SOZ 4.2 02:38:48 10° WNW 02:40:57 72° SW 02:41:32 44° SE
Spot 2 Rocket 3.6 02:41:13 23° SSE 02:44:25 67° ENE 02:49:29 10° N
CZ-2C R/B 3.9 02:40:29 10° NNE 02:44:57 49° E 02:47:20 25° SSE
DELTA 2 R/B (1) 4.1 02:40:09 10° W 02:45:24 43° SSW 02:48:11 25° SSE
Cosmos 1371 Rocket 4.2 02:41:07 10° SSW 02:46:18 74° WNW 02:51:36 10° NNE
Tiangong 1.1 02:43:33 10° W 02:46:44 78° N 02:48:27 25° E
Cosmos 1452 Rocket 4.3 02:45:30 25° SE 02:47:26 32° E 02:52:03 10° NE
Atlas Centaur 2 3.2 02:45:54 10° SW 02:48:34 16° SSW 02:48:42 16° SSW
SPOT 5 2.6 02:46:50 26° SSE 02:49:18 71° ENE 02:53:39 10° N
USA 267 3.2 02:45:15 10° NE 02:51:49 74° SE 02:58:20 10° SW
Cosmos 1455 2.2 02:51:34 10° N 02:55:21 63° E 02:56:39 37° SSE
Meteor 2-5 Rocket 4.1 02:49:57 10° SSW 02:55:25 63° WNW 03:00:55 10° N
Cosmos 1703 3.9 03:00:47 33° ESE 03:01:17 35° E 03:04:49 10° NNE
ARIANE 5 R/B 3.0 03:02:16 32° SE 03:03:56 49° ENE 03:08:15 10° N
SPOT 3 Rocket 4.2 03:03:23 18° S 03:07:02 49° W 03:12:05 10° NNW
USA 276 2.7 03:08:20 10° WSW 03:11:17 54° NNW 03:14:14 10° NE
TSX-5 4.2 03:11:40 39° SSE 03:13:00 57° ESE 03:18:04 10° NNE
Helios 1A Rocket 3.2 03:12:11 33° S 03:13:50 61° WSW 03:17:53 10° NNW
Lacrosse 5 2.4 03:13:59 10° NW 03:18:58 52° NE 03:21:26 28° ESE
ATLAS 2AS CENTAUR R/B 2.6 03:16:58 10° NNW 03:24:04 83° NE 03:27:17 33° SE
USA 234 4.2 03:18:39 12° E 03:24:21 43° NNE 03:30:28 10° NW
ERS-1 Rocket 3.4 03:24:05 29° SSW 03:26:31 57° W 03:31:29 10° NNW
Terra 1.9 03:25:59 36° S 03:27:51 69° WSW 03:32:37 10° NNW
Cosmos 1980 Rocket 4.3 03:25:56 10° N 03:29:34 17° NE 03:33:04 10° E
Meteor 1-21 Rocket 4.3 03:30:10 39° SSE 03:32:01 60° E 03:37:33 10° NNE
Cosmos 1697 Rocket 3.9 03:28:25 10° N 03:33:25 32° ENE 03:35:48 23° E
Cosmos 1741 Rocket 4.4 03:30:42 10° N 03:35:55 53° ENE 03:37:33 38° ESE
X-37B 1.5 03:35:20 10° W 03:37:54 41° NNW 03:37:54 41° NNW
Lacrosse 5 rocket 1.1 03:34:31 10° NW 03:38:25 71° SW 03:38:46 66° S
CSL-04 DEB 4.5 03:34:33 10° NNE 03:38:54 71° ESE 03:39:36 58° SSE
Cosmos 1536 Rocket 4.1 03:38:28 31° SW 03:40:15 54° W 03:44:31 10° N
RESURS DK-1 3.4 03:36:58 10° N 03:40:46 33° ENE 03:41:26 31° E
Cosmos 2074 Rocket 4.0 03:38:25 10° N 03:44:42 75° W 03:47:29 35° S
ATLAS 5 CENTAUR R/B 3.8 03:38:16 10° NW 03:45:18 27° W 03:46:53 21° SW
Cosmos 1656 3.5 03:45:18 10° NNW 03:50:48 89° ENE 03:52:19 50° SSE
Cosmos 1606 Rocket 3.6 03:47:28 10° N 03:51:45 58° E 03:52:02 57° E
Cosmos 1271 Rocket 4.4 03:48:34 10° NW 03:51:55 26° W 03:53:01 23° WSW
Cosmos 2228 2.8 03:50:43 10° N 03:54:58 79° W 03:55:23 69° SSW
SAR-Lupe-4 3.6 03:51:39 10° N 03:55:10 74° WNW 03:55:10 74° WNW
Cosmos 1408 4.2 03:58:25 23° NE 03:58:25 23° NE 04:00:14 10° NNE
Cosmos 1833 Rocket 2.5 03:57:06 43° SSW 03:59:02 83° ESE 04:04:41 10° NNE
Nadezhda 1 Rocket 3.9 03:57:00 36° SSW 03:59:38 79° W 04:05:44 10° N
NOSS 2-1 (E) 4.3 03:58:36 10° NW 04:03:37 70° WSW 04:05:29 46° S
Cosmos 2154 Rocket 4.0 04:00:55 10° NNW 04:07:07 72° W 04:09:17 42° SSW
Cosmos 1850 Rocket 3.9 04:01:59 10° NNW 04:07:12 78° WSW 04:08:09 59° S
Meteor 2-1 Rocket 4.1 04:04:05 10° N 04:09:37 87° W 04:10:52 56° S
ASTEX 1 3.4 04:09:28 10° N 04:14:30 83° W 04:15:24 60° SSW
Cosmos 1726 Rocket 3.4 04:12:55 10° N 04:17:15 87° E 04:17:15 87° E
Cosmos 2082 Rocket 2.5 04:17:43 48° ESE 04:18:02 48° ESE 04:23:31 10° NE
ALOS 2 3.6 04:20:33 35° ENE 04:20:47 35° ENE 04:24:46 10° N
Cosmos 2344 4.5 04:12:23 10° NNW 04:21:32 69° NE 04:29:32 26° SE
Cosmos 1825 3.9 04:24:04 24° ENE 04:24:04 24° ENE 04:26:10 10° NNE
Cosmos 1331 Rocket 4.4 04:21:18 39° SW 04:23:09 61° WNW 04:28:25 10° NNE
Tiangong 4.0 04:20:27 10° W 04:20:41 12° W 04:20:41 12° W
ADEOS Rocket 3.7 04:33:51 40° SE 04:36:20 59° ENE 04:43:42 10° N
ERS-2 4.1 04:36:20 10° NE 04:37:57 21° ENE 04:37:57 21° ENE
SL-8 Rocket 3.9 04:35:11 10° N 04:41:28 82° E 04:42:47 58° SSE
Meteor 1-27 4.4 04:36:36 10° N 04:42:04 54° ENE 04:42:54 50° ESE
SL-8 R/B 4.5 04:39:19 10° NW 04:44:01 50° NNE 04:46:09 29° E
Cosmos 2058 Rocket 3.1 04:42:07 10° N 04:46:17 75° NW 04:46:17 75° NW
Cosmos 1302 Rocket 4.0 04:47:18 64° SW 04:48:00 76° WNW 04:53:14 10° NNE
Cosmos 1892 Rocket 4.3 04:47:59 43° W 04:48:17 43° WNW 04:52:30 10° N
Cosmos 1892 3.5 04:50:36 48° NNW 04:50:36 48° NNW 04:53:33 10° N
Cosmos 2218 Rocket 4.0 04:43:26 10° N 04:49:52 80° E 04:51:17 57° SSE
COSMOS 2406 3.5 04:49:38 43° SW 04:51:24 65° WNW 04:57:09 10° NNE
Cosmos 2341 Rocket 4.1 04:49:01 10° NNW 04:55:18 66° W 04:56:41 52° SSW
Cosmos 2366 rocket 3.9 04:49:50 10° N 04:56:11 88° E 04:57:30 60° S
GP-B 4.2 04:53:52 10° NNW 04:57:55 35° W 04:58:11 35° W
Cosmos 2369 3.6 04:55:46 10° NNW 05:01:33 90° S 05:02:15 70° SSE
Lacrosse 5 3.3 04:57:25 10° WNW 05:00:37 25° WSW 05:00:37 25° WSW
SL-16 R/B 4.0 04:59:55 10° N 05:04:30 24° NE 05:07:37 16° E
H-2A R/B 3.9 05:00:56 10° N 05:04:48 58° NW 05:04:48 58° NW
Cosmos 1626 Rocket 3.7 05:06:03 69° N 05:06:03 69° N 05:09:53 10° N
USA 234 3.2 05:05:58 55° S 05:07:09 64° SW 05:13:40 10° NW
Cosmos 1633 4.1 05:13:11 31° NNE 05:13:11 31° NNE 05:15:12 10° NNE
Cosmos-2242 4.0 05:08:00 10° N 05:11:37 38° ENE 05:11:37 38° ENE
Celestis-02/Orion 38 4.4 05:12:26 78° SSE 05:12:48 89° ENE 05:17:56 10° NNW
ATLAS 2AS CENTAUR R/B 4.3 05:09:45 10° WNW 05:13:58 17° WSW 05:14:42 17° WSW
Cosmos 1980 Rocket 2.0 05:08:34 10° NNW 05:14:17 81° WSW 05:14:48 73° S
Okean 1-7 Rocket 3.9 05:14:38 58° WNW 05:14:38 58° WNW 05:18:48 10° N
Cosmos 1697 Rocket 3.5 05:12:17 10° NW 05:17:23 37° WSW 05:17:30 37° WSW
Cosmos 968 Rocket 3.9 05:22:56 10° NNW 05:27:48 49° W 05:27:48 49° W
Cosmos 2058 3.8 05:36:53 42° ENE 05:36:53 42° ENE 05:40:14 10° NNE
SJ 16-02 2.8 05:34:33 10° N 05:38:27 29° ENE 05:39:08 28° E
CZ-2D R/B 4.3 05:37:53 10° ENE 05:39:48 12° E 05:40:48 11° E
Cosmos 2322 Rocket 3.5 05:39:52 10° N 05:45:03 35° ENE 05:47:53 22° ESE
PSLV R/B 3.8 05:40:37 10° N 05:45:24 74° WNW 05:45:24 74° WNW
Cosmos 2278 3.6 05:41:11 10° NNW 05:46:55 75° WSW 05:47:22 71° SSW
Cosmos 1486 Rocket 3.9 05:46:59 10° NNW 05:52:10 69° WSW 05:52:10 69° WSW
Cosmos 1758 Rocket 4.0 05:52:40 52° WNW 05:52:40 52° WNW 05:56:32 10° N
Cosmos 1821 Rocket 3.9 05:47:21 10° NNW 05:53:36 69° W 05:54:37 58° SW
Resurs 1-4 Rocket 4.0 05:50:32 10° NE 05:54:04 18° E 05:55:09 17° ESE
Aureole 1 Rocket 4.4 05:47:52 10° NNW 05:54:58 82° WSW 05:57:32 48° S
ATLAS 5 CENTAUR R/B 2.0 05:56:31 49° N 05:56:31 49° N 05:59:50 10° NNE
ALOS 2 4.5 05:57:57 20° W 05:57:57 20° W 06:00:28 10° NW
Cosmos 1825 4.5 05:58:42 16° WNW 05:58:42 16° WNW 06:00:45 10° NNW
Cosmos 2082 Rocket 3.9 05:59:32 18° W 06:02:21 26° NW 06:07:06 10° N
CRYOSAT 2 4.2 06:04:17 77° WSW 06:04:20 77° W 06:09:15 10° N
Nadezhda 3 Rocket 4.1 06:03:24 51° SW 06:04:37 60° W 06:10:42 10° N
Cosmos 2221 3.5 06:04:28 10° N 06:08:33 38° ENE 06:08:51 38° E
ERS-2 4.4 06:10:14 10° NNW 06:12:20 17° WNW 06:12:20 17° WNW
Cosmos 1606 3.7 06:09:03 10° NNW 06:11:47 40° NW 06:11:47 40° NW
Cosmos 1354 Rocket 3.9 06:09:30 10° NNW 06:14:51 90° E 06:15:25 72° SSE
Cosmos 1867 4.0 06:11:38 10° NW 06:16:19 44° W 06:16:19 44° W
Cosmos 1340 Rocket 3.2 06:25:01 59° NNW 06:25:01 59° NNW 06:28:20 10° N
Cosmos 2360 Rocket 3.0 06:20:22 10° NNW 06:25:51 47° ENE 06:29:04 23° ESE
CENTAUR R/B 4.4 06:24:52 12° ESE 06:26:25 13° ESE 06:29:13 10° ENE
MINOTAUR IV R/B 4.5 06:22:30 10° NNW 06:27:07 89° ENE 06:27:08 88° E
Cosmos 1503 Rocket 4.2 06:23:33 10° NNW 06:28:44 55° WSW 06:28:48 55° WSW
Meteor 2-2 Rocket 4.4 06:30:51 10° NNW 06:36:46 62° W 06:37:54 52° SW
ADEOS II 3.8 06:34:21 10° NE 06:38:31 23° E 06:40:30 19° SE
Gbstr 26 Del rocket 3.4 06:40:25 57° SE 06:40:25 57° SE 06:45:44 10° ENE
Cosmos 1953 Rocket 4.1 06:41:03 46° W 06:41:04 46° WNW 06:45:22 10° N
Geosat 3.9 06:40:47 64° SW 06:41:09 67° WSW 06:46:10 10° NNW
SL-16 R/B 3.5 06:41:09 16° SE 06:45:51 45° ENE 06:51:46 10° N
Cosmos 1777 Rocket 3.9 06:41:10 10° NNW 06:46:28 74° WSW 06:47:16 61° SSW
SL-27 R/B 3.7 06:49:17 33° ENE 06:49:17 33° ENE 06:51:42 10° NE
SL-16 R/B 2.3 06:43:24 10° NNW 06:48:54 52° WSW 06:49:26 50° SW
Cosmos 1782 3.6 06:47:17 10° N 06:51:07 44° ENE 06:51:44 40° ESE
Cosmos 44 3.1 06:59:15 62° SSE 06:59:46 68° ESE 07:04:17 10° NE
Cosmos 2219 Rocket 3.2 07:01:57 10° NNW 07:07:23 44° ENE 07:12:46 10° SE
Cosmos 1076 Rocket 3.4 07:07:08 64° WSW 07:07:32 70° W 07:11:55 10° N
Meteor 2-3 Rocket 3.7 07:06:05 48° SSW 07:07:41 76° W 07:13:18 10° N
MOS 1 Rocket 3.8 07:05:39 31° SE 07:07:56 61° ENE 07:13:02 10° N
Cosmos 1842 Rocket 3.8 07:10:02 10° NNW 07:14:22 51° W 07:14:40 50° WSW
Cosmos 540 Rocket 4.2 07:14:27 31° SSE 07:16:18 44° ESE 07:21:10 10° NNE
SJ 16-02 2.8 07:13:17 10° NW 07:16:04 23° W 07:16:04 23° W
Cosmos 1727 Rocket 4.0 07:15:24 39° SSW 07:17:54 76° W 07:24:15 10° N
IDEFIX/ARIANE 42P 3.3 07:12:55 10° NNE 07:17:56 45° E 07:20:18 28° SSE
Thor Agena Rocket 4.1 07:13:22 10° N 07:18:21 47° WNW 07:19:49 37° WSW
UNK 4.1 07:16:22 28° SE 07:18:42 62° ENE 07:23:19 10° N
COSMOS 2487 2.6 07:20:14 59° N 07:20:14 59° N 07:22:50 10° NNE
CZ-2D R/B 2.0 07:15:12 10° N 07:20:25 79° WNW 07:22:07 44° SSW
Cosmos 1933 3.3 07:17:13 10° NNW 07:21:09 58° W 07:21:16 58° WSW
SL-4 R/B 1.7 07:22:05 68° W 07:22:24 74° NW 07:26:16 10° NE
Cosmos 2333 Rocket 2.2 07:19:47 10° NNW 07:25:36 84° ENE 07:29:58 18° SSE
Cosmos 2322 Rocket 2.9 07:23:59 10° NW 07:29:01 33° WSW 07:29:39 33° WSW
Cosmos 972 4.3 07:25:38 10° NNW 07:30:34 78° WSW 07:32:56 33° S
ISS -2.7 07:33:46 34° SE 07:33:46 34° SE 07:36:36 10° ENE
Resurs 1-4 Rocket 2.3 07:29:00 10° N 07:34:13 57° WNW 07:36:13 36° SW
Cosmos 1000 Rocket 4.4 07:31:54 32° S 07:35:00 89° W 07:41:11 10° N
CZ-4 R/B 4.1 07:30:18 10° N 07:35:03 58° WNW 07:36:40 38° SW
AQUA 3.7 07:32:33 10° NNE 07:37:19 83° WNW 07:39:04 40° SSW
Cosmos 1151 Rocket 4.1 07:34:02 10° N 07:38:13 42° ENE 07:41:41 14° SSE
Cosmos 1812 2.7 07:35:27 10° NNW 07:39:13 59° W 07:39:41 54° SW
YAOGAN 11 4.2 07:38:11 28° SSE 07:40:34 85° ENE 07:45:08 10° NNW
NOSS 3-2 (A) 3.5 07:38:39 32° S 07:41:03 58° ESE 07:47:01 10° NE
Helios 1A 3.8 07:37:51 15° SE 07:41:05 49° ENE 07:45:09 10° N
Cosmos 2100 Rocket 4.0 07:35:36 10° N 07:42:00 82° W 07:46:09 23° S
Cosmos 1459 Rocket 3.9 07:36:38 10° N 07:42:42 89° W 07:46:46 22° S
Cosmos 2221 4.3 07:42:56 10° NW 07:45:39 17° W 07:45:39 17° W
Cosmos 2123 Rocket 4.1 07:46:36 23° S 07:50:44 78° E 07:57:02 10° N
USA 290 3.1 07:47:52 10° N 07:51:00 49° ENE 07:53:15 17° SE
Cosmos 1725 Rocket 4.3 07:46:41 10° N 07:52:51 67° E 07:58:59 10° SSE
FALCON 9 DEB 2.9 07:54:02 10° WNW 07:57:16 60° SW 07:59:01 24° SSE
Cosmos 2333 4.4 07:51:41 10° NNW 07:57:17 52° WSW 08:00:52 22° S
Cosmos 2151 4.3 07:57:33 22° W 07:58:33 25° WNW 08:02:06 10° NNW
Cosmos 2173 Rocket 4.1 07:52:36 10° NNW 07:58:54 65° W 08:03:11 21° S
USA 276 3.1 07:57:16 10° NW 08:00:10 46° NNE 08:03:04 10° ESE
ASTRO E2 4.4 08:01:46 18° SSE 08:01:46 18° SSE 08:03:29 10° SE
Cosmos 2227 Rocket 4.0 07:58:23 10° SSE 08:02:55 25° ESE 08:07:27 10° NE
Cosmos 1763 Rocket 4.2 08:01:15 25° WSW 08:03:42 41° WNW 08:08:40 10° N
Cosmos 2061 Rocket 4.2 07:59:30 10° N 08:05:59 80° E 08:12:25 10° S
NPP 4.5 08:01:43 10° N 08:06:37 36° WNW 08:09:21 22° WSW
Cosmos 841 Rocket 3.4 08:03:43 26° SSW 08:06:41 87° ESE 08:11:52 10° NNE
CZ-2C R/B 4.4 08:04:42 10° NE 08:08:15 22° E 08:11:46 10° SE
Cosmos 2360 Rocket 3.3 08:05:03 10° NW 08:09:30 24° WSW 08:10:46 22° WSW
OAO 3 Rocket 4.2 08:08:25 26° SSW 08:09:55 31° SSE 08:14:14 10° ESE
Cosmos 1802 Rocket 4.0 08:04:11 10° NNW 08:10:20 68° W 08:15:26 16° S
Cosmos 2285 Rocket 4.4 08:06:37 24° SW 08:10:28 54° WNW 08:16:48 10° N
Cosmos 2016 Rocket 3.9 08:05:42 10° N 08:11:49 79° W 08:17:26 12° S
Meteor 1-28 Rocket 3.5 08:11:53 32° SW 08:13:03 43° W 08:16:35 10° NNW
Cosmos 1340 2.5 08:09:22 10° N 08:13:05 88° W 08:15:39 19° S
COSMOS 2428 2.6 08:07:38 10° NNW 08:13:21 80° WSW 08:19:03 10° SSE
IRS-1D 3.5 08:08:24 10° NNE 08:13:28 80° ESE 08:17:03 19° S
Cosmos 990 Rocket 4.4 08:10:39 10° NW 08:15:26 40° WSW 08:18:18 21° SSW
CENTAUR R/B 2.4 08:12:02 24° SW 08:15:42 87° NW 08:22:34 10° NE
Cosmos 1862 4.3 08:16:23 25° WSW 08:17:42 31° WNW 08:21:14 10° NNW
Cosmos 372 Rocket 4.3 08:12:52 10° NNW 08:18:08 70° ENE 08:23:18 10° SSE
ADEOS II 2.7 08:13:24 10° N 08:18:21 43° WNW 08:21:25 21° SW
COSMOS 2441 4.3 08:15:09 10° N 08:19:56 77° WNW 08:23:14 20° SSW
NOSS 3-2 (C) 3.5 08:20:11 19° SSW 08:24:02 64° ESE 08:30:06 10° NE
Cosmos 1400 Rocket 4.0 08:23:20 10° SSE 08:26:57 39° E 08:30:40 10° NNE
Meteor 1-10 Rocket 4.3 08:22:37 10° NNW 08:28:32 71° W 08:34:19 10° S
Cosmos 2237 Rocket 3.2 08:23:19 10° NNW 08:28:51 50° ENE 08:34:19 10° SE
SL-16 R/B 3.4 08:26:15 19° SW 08:29:33 30° W 08:34:58 10° NW
EO 1 Del DPAF 3.8 08:28:20 10° N 08:31:34 37° WNW 08:33:15 22° SW
ARIANE 5 R/B 4.1 08:27:29 10° NE 08:31:55 30° E 08:36:21 10° SSE
Cosmos 2322 4.2 08:27:51 10° NW 08:33:07 40° WSW 08:38:20 10° S
Cosmos 2297 Rocket 2.4 08:28:34 15° SSW 08:33:20 70° ESE 08:38:57 10° NNE
Cosmos 1898 Rocket 3.9 08:32:04 10° NW 08:36:53 40° WSW 08:41:32 11° S
Cosmos 1356 Rocket 3.6 08:39:02 18° SSW 08:41:46 51° WNW 08:45:40 10° N
Cosmos 220 Rocket 4.1 08:37:39 10° NNW 08:42:04 81° ENE 08:46:30 10° SSE
USA 238 DEB 3.6 08:37:08 16° SSW 08:42:29 85° ESE 08:49:16 10° NE
USA 238 3.6 08:37:15 15° SSW 08:42:37 84° ESE 08:49:24 10° NE
Cosmos 1184 Rocket 4.0 08:43:26 10° NW 08:45:50 22° W 08:46:52 18° WSW
Intercosmos 24 Rocket 4.3 08:44:15 15° SSW 08:47:08 66° W 08:51:15 10° N
H-2A R/B 3.7 08:45:02 14° SSW 08:47:56 20° SSE 08:57:45 10° SE
Cosmos 1500 3.3 08:45:46 10° S 08:49:32 73° E 08:53:18 10° NNE
CBERS-1 4.0 08:44:46 10° N 08:49:55 75° WNW 08:55:01 10° SSW
Cosmos 2219 Rocket 3.2 08:46:26 10° NW 08:51:02 26° WSW 08:55:39 10° SSW
ALOS 2.5 08:49:33 10° NNE 08:54:14 74° ESE 08:58:52 10° S
Cosmos 1937 Rocket 4.0 08:50:55 10° NW 08:55:44 38° WSW 09:00:30 10° SSW
IDEFIX/ARIANE 42P 4.0 08:53:11 10° NNW 08:57:10 23° WNW 09:01:06 10° WSW
CZ-2D R/B 4.3 08:58:41 10° NW 08:59:34 10° WNW 09:00:27 10° WNW
Cosmos 1570 Rocket 4.0 08:55:46 10° SSW 09:00:58 80° WNW 09:06:15 10° NNE
SL-4 R/B 4.0 08:59:23 10° WNW 09:02:24 22° NNW 09:05:36 10° NE
Cosmos 2208 Rocket 4.2 08:57:27 10° SSW 09:02:53 84° ESE 09:08:20 10° NNE
Cosmos 1328 Rocket 4.4 09:00:22 10° NNW 09:04:19 33° W 09:08:14 10° SSW
USA 215 3.3 08:59:48 10° NE 09:06:22 85° SE 09:12:55 10° SW
Cosmos 1814 Rocket 4.3 09:02:17 11° SW 09:07:04 51° WNW 09:12:03 10° N
Cosmos 1515 Rocket 3.6 09:04:23 10° NNW 09:08:43 58° W 09:13:00 10° S
Cosmos 2333 Rocket 4.0 09:06:33 10° WNW 09:09:02 13° W 09:11:30 10° WSW
ISS -2.3 09:07:13 10° W 09:10:16 31° NNW 09:13:20 10° NE
IRS-1C 4.2 09:06:12 10° NNE 09:11:34 87° E 09:16:54 10° SSW
PAYLOAD A 4.2 09:06:15 10° NNE 09:11:35 85° WNW 09:17:00 10° SSW
Cosmos 1346 Rocket 3.2 09:14:23 10° N 09:18:15 64° ENE 09:22:06 10° SSE
Helios 1B rocket 3.0 09:15:17 10° N 09:19:11 43° WNW 09:23:03 10° SW
Cosmos 1805 Rocket 3.8 09:14:54 10° S 09:19:19 76° E 09:23:44 10° N
Cosmos 1464 Rocket 4.4 09:13:33 10° N 09:19:52 72° E 09:26:13 10° SSE
Cosmos 1743 Rocket 3.6 09:17:11 10° SSW 09:21:36 71° W 09:26:01 10° N
